RMF1 WMKL-WMKI

Flight info

Callsign RMF1
Flight time 0h 31m
Altitude 21000
Route ANDOK1B ANDOK W531 VILAT DCT SOTRO DCT
Aircraft B738/M-SDE2E3FGHIRWXY/LB1

Departure

Time 2026-04-27 11:35
Airport Langkawi International Airport (WMKL)

Arrival

Time 2026-04-27 12:07
Airport Sultan Azlan Shah Airport (WMKI)
Time Latitude Longitude Altitude Speed Heading
2026-04-27 11:14 6.33803 99.73066 34 ft 0 kts 303°
2026-04-27 11:26 6.33801 99.73069 35 ft 2 kts 302°
2026-04-27 11:27 6.33791 99.73083 35 ft 2 kts 305°
2026-04-27 11:27 6.33782 99.73097 35 ft 2 kts 309°
2026-04-27 11:27 6.33770 99.73108 35 ft 2 kts 342°
2026-04-27 11:27 6.33756 99.73107 35 ft 1 kts 37°
2026-04-27 11:28 6.33754 99.73106 35 ft 0 kts 36°
2026-04-27 11:30 6.33763 99.73112 35 ft 4 kts 35°
2026-04-27 11:30 6.33799 99.73136 35 ft 8 kts 34°
2026-04-27 11:30 6.33851 99.73172 34 ft 9 kts 34°
2026-04-27 11:31 6.33902 99.73207 35 ft 9 kts 34°
2026-04-27 11:31 6.33953 99.73241 35 ft 9 kts 34°
2026-04-27 11:31 6.34002 99.73274 35 ft 8 kts 34°
2026-04-27 11:31 6.34049 99.73307 33 ft 8 kts 34°
2026-04-27 11:32 6.34094 99.73339 35 ft 8 kts 44°
2026-04-27 11:32 6.34096 99.73388 33 ft 8 kts 118°
2026-04-27 11:32 6.34103 99.73436 34 ft 8 kts 46°
2026-04-27 11:32 6.34152 99.73472 34 ft 10 kts 35°
2026-04-27 11:33 6.34216 99.73516 35 ft 12 kts 33°
2026-04-27 11:33 6.34293 99.73569 36 ft 14 kts 34°
2026-04-27 11:33 6.34373 99.73623 36 ft 14 kts 34°
2026-04-27 11:33 6.34442 99.73685 36 ft 13 kts 63°
2026-04-27 11:34 6.34432 99.73771 35 ft 13 kts 121°
2026-04-27 11:34 6.34360 99.73806 38 ft 12 kts 195°
2026-04-27 11:34 6.34299 99.73770 38 ft 0 kts 213°
2026-04-27 11:34 6.34298 99.73769 38 ft 1 kts 213°
2026-04-27 11:35 6.34253 99.73739 37 ft 30 kts 214°
2026-04-27 11:35 6.33778 99.73414 35 ft 132 kts 214°
2026-04-27 11:35 6.32789 99.72742 234 ft 200 kts 214°
2026-04-27 11:35 6.31630 99.71964 1554 ft 191 kts 214°
2026-04-27 11:36 6.30383 99.71523 2812 ft 201 kts 178°
2026-04-27 11:36 6.29028 99.72021 3365 ft 221 kts 138°
2026-04-27 11:36 6.27905 99.73221 3617 ft 250 kts 129°
2026-04-27 11:36 6.26724 99.74591 4167 ft 269 kts 129°
2026-04-27 11:37 6.25480 99.75999 5201 ft 269 kts 130°
2026-04-27 11:37 6.24208 99.77396 6248 ft 272 kts 131°
2026-04-27 11:37 6.22902 99.78796 7149 ft 276 kts 131°
2026-04-27 11:37 6.21560 99.80208 8003 ft 283 kts 132°
2026-04-27 11:38 6.20180 99.81645 8904 ft 287 kts 133°
2026-04-27 11:38 6.18776 99.83093 9842 ft 290 kts 133°
2026-04-27 11:38 6.17341 99.84567 10510 ft 303 kts 133°
2026-04-27 11:38 6.15799 99.86147 10734 ft 329 kts 133°
2026-04-27 11:39 6.14159 99.87822 11268 ft 341 kts 133°
2026-04-27 11:39 6.12502 99.89510 12034 ft 344 kts 133°
2026-04-27 11:39 6.10812 99.91231 12849 ft 347 kts 133°
2026-04-27 11:39 6.09102 99.92972 13590 ft 352 kts 133°
2026-04-27 11:40 6.07370 99.94735 14243 ft 357 kts 133°
2026-04-27 11:40 6.05617 99.96520 14947 ft 359 kts 133°
2026-04-27 11:40 6.03856 99.98312 15612 ft 363 kts 133°
2026-04-27 11:40 6.02061 100.00125 16287 ft 367 kts 135°
2026-04-27 11:41 6.00099 100.01780 16951 ft 371 kts 141°
2026-04-27 11:41 5.98000 100.03326 17613 ft 375 kts 143°
2026-04-27 11:41 5.95866 100.04861 18252 ft 378 kts 143°
2026-04-27 11:41 5.93735 100.06423 18694 ft 378 kts 142°
2026-04-27 11:42 5.91617 100.08012 18809 ft 384 kts 141°
2026-04-27 11:42 5.89449 100.09654 18819 ft 392 kts 141°
2026-04-27 11:42 5.87264 100.11313 18824 ft 395 kts 141°
2026-04-27 11:42 5.85067 100.12977 18823 ft 395 kts 141°
2026-04-27 11:43 5.82877 100.14635 18814 ft 394 kts 141°
2026-04-27 11:43 5.80713 100.16271 18816 ft 395 kts 141°
2026-04-27 11:43 5.78488 100.17956 18921 ft 407 kts 142°
2026-04-27 11:43 5.76180 100.19702 19408 ft 409 kts 142°
2026-04-27 11:44 5.73953 100.21387 20089 ft 405 kts 142°
2026-04-27 11:44 5.71694 100.23095 20566 ft 404 kts 142°
2026-04-27 11:44 5.69452 100.24790 20786 ft 405 kts 142°
2026-04-27 11:44 5.67191 100.26500 20796 ft 405 kts 142°
2026-04-27 11:45 5.64950 100.28195 20798 ft 404 kts 142°
2026-04-27 11:45 5.63465 100.29318 20805 ft 404 kts 142°
2026-04-27 11:45 5.60461 100.31589 20807 ft 404 kts 142°
2026-04-27 11:45 5.58237 100.33271 20811 ft 404 kts 142°
2026-04-27 11:46 5.55988 100.34971 20806 ft 404 kts 142°
2026-04-27 11:46 5.53741 100.36670 20807 ft 404 kts 142°
2026-04-27 11:46 5.51501 100.38364 20676 ft 400 kts 142°
2026-04-27 11:46 5.49299 100.40027 20418 ft 390 kts 142°
2026-04-27 11:47 5.47156 100.41646 20179 ft 381 kts 142°
2026-04-27 11:47 5.45052 100.43235 19950 ft 378 kts 142°
2026-04-27 11:47 5.42946 100.44827 19720 ft 378 kts 141°
2026-04-27 11:47 5.40843 100.46417 19494 ft 378 kts 141°
2026-04-27 11:48 5.38743 100.48004 19268 ft 377 kts 141°
2026-04-27 11:48 5.36643 100.49590 19051 ft 377 kts 141°
2026-04-27 11:48 5.34550 100.51171 18825 ft 376 kts 141°
2026-04-27 11:48 5.32497 100.52722 18608 ft 375 kts 142°
2026-04-27 11:49 5.30410 100.54298 18391 ft 374 kts 141°
2026-04-27 11:49 5.28332 100.55867 18168 ft 372 kts 141°
2026-04-27 11:49 5.26269 100.57425 17765 ft 369 kts 141°
2026-04-27 11:49 5.24227 100.58967 17316 ft 365 kts 141°
2026-04-27 11:50 5.22202 100.60495 16855 ft 362 kts 141°
2026-04-27 11:50 5.20197 100.62009 16412 ft 360 kts 141°
2026-04-27 11:50 5.18203 100.63514 15964 ft 357 kts 141°
2026-04-27 11:50 5.16226 100.65006 15518 ft 355 kts 141°
2026-04-27 11:51 5.14282 100.66474 15077 ft 353 kts 141°
2026-04-27 11:51 5.12960 100.67473 14772 ft 352 kts 141°
2026-04-27 11:51 5.09064 100.70412 13864 ft 349 kts 141°
2026-04-27 11:52 5.07121 100.71879 13394 ft 348 kts 141°
2026-04-27 11:52 5.04570 100.73803 12777 ft 345 kts 141°
2026-04-27 11:52 5.03282 100.74775 12473 ft 343 kts 141°
2026-04-27 11:52 5.01402 100.76194 12039 ft 341 kts 141°
2026-04-27 11:53 4.99520 100.77614 11701 ft 335 kts 141°
2026-04-27 11:53 4.97677 100.79004 11326 ft 331 kts 141°
2026-04-27 11:53 4.95837 100.80392 10923 ft 329 kts 141°
2026-04-27 11:53 4.94013 100.81767 10600 ft 324 kts 141°
2026-04-27 11:54 4.92125 100.82930 10434 ft 316 kts 154°
2026-04-27 11:54 4.90388 100.83637 10323 ft 307 kts 157°
2026-04-27 11:54 4.88353 100.84414 10180 ft 299 kts 157°
2026-04-27 11:54 4.86438 100.85148 10048 ft 290 kts 157°
2026-04-27 11:55 4.84565 100.85878 9777 ft 288 kts 156°
2026-04-27 11:55 4.82730 100.86602 9465 ft 286 kts 156°
2026-04-27 11:55 4.80878 100.87341 9143 ft 285 kts 156°
2026-04-27 11:55 4.79046 100.88074 8827 ft 284 kts 156°
2026-04-27 11:56 4.77190 100.88819 8515 ft 282 kts 156°
2026-04-27 11:56 4.75399 100.89538 8219 ft 281 kts 156°
2026-04-27 11:56 4.73545 100.90169 7882 ft 283 kts 170°
2026-04-27 11:56 4.71579 100.90134 7607 ft 282 kts 184°
2026-04-27 11:57 4.69632 100.89936 7306 ft 281 kts 184°
2026-04-27 11:57 4.67681 100.89733 7002 ft 281 kts 184°
2026-04-27 11:57 4.65737 100.89539 6694 ft 280 kts 184°
2026-04-27 11:57 4.63785 100.89350 6393 ft 280 kts 184°
2026-04-27 11:58 4.61876 100.89168 6082 ft 279 kts 184°
2026-04-27 11:58 4.59940 100.88985 5766 ft 279 kts 184°
2026-04-27 11:58 4.58011 100.88803 5461 ft 277 kts 184°
2026-04-27 11:58 4.56137 100.88626 5376 ft 260 kts 184°
2026-04-27 11:59 4.54400 100.88461 5253 ft 240 kts 184°
2026-04-27 11:59 4.52807 100.88310 5138 ft 220 kts 184°
2026-04-27 11:59 4.51358 100.88173 5029 ft 203 kts 184°
2026-04-27 11:59 4.50014 100.88046 4901 ft 186 kts 184°
2026-04-27 12:00 4.48747 100.87927 4642 ft 182 kts 184°
2026-04-27 12:00 4.47528 100.88104 4324 ft 178 kts 147°
2026-04-27 12:00 4.46672 100.88955 4119 ft 172 kts 131°
2026-04-27 12:00 4.45852 100.89843 3954 ft 174 kts 132°
2026-04-27 12:01 4.45021 100.90734 3811 ft 177 kts 132°
2026-04-27 12:01 4.44183 100.91638 3699 ft 178 kts 132°
2026-04-27 12:01 4.43344 100.92546 3559 ft 177 kts 133°
2026-04-27 12:01 4.42510 100.93450 3420 ft 176 kts 133°
2026-04-27 12:02 4.41730 100.94373 3280 ft 176 kts 118°
2026-04-27 12:02 4.41595 100.95526 3099 ft 166 kts 71°
2026-04-27 12:02 4.42268 100.96424 2977 ft 161 kts 40°
2026-04-27 12:02 4.43094 100.97192 2820 ft 159 kts 43°
2026-04-27 12:03 4.43886 100.97929 2619 ft 155 kts 41°
2026-04-27 12:03 4.44685 100.98641 2478 ft 153 kts 40°
2026-04-27 12:03 4.45495 100.99352 2445 ft 155 kts 40°
2026-04-27 12:03 4.46305 101.00060 2403 ft 154 kts 40°
2026-04-27 12:04 4.47113 101.00765 2344 ft 154 kts 40°
2026-04-27 12:04 4.47927 101.01475 2148 ft 153 kts 40°
2026-04-27 12:04 4.48710 101.02158 1958 ft 147 kts 41°
2026-04-27 12:04 4.49468 101.02819 1775 ft 146 kts 41°
2026-04-27 12:05 4.50238 101.03481 1602 ft 144 kts 41°
2026-04-27 12:05 4.51007 101.04128 1479 ft 146 kts 41°
2026-04-27 12:05 4.51783 101.04805 1303 ft 148 kts 41°
2026-04-27 12:05 4.52557 101.05477 1063 ft 146 kts 42°
2026-04-27 12:06 4.53308 101.06146 905 ft 143 kts 42°
2026-04-27 12:06 4.54067 101.06804 704 ft 144 kts 41°
2026-04-27 12:06 4.54818 101.07466 502 ft 143 kts 41°
2026-04-27 12:06 4.55551 101.08108 326 ft 141 kts 42°
2026-04-27 12:07 4.56298 101.08770 143 ft 142 kts 41°
2026-04-27 12:07 4.56964 101.09360 127 ft 101 kts 40°
2026-04-27 12:07 4.57262 101.09616 133 ft 18 kts 41°
2026-04-27 12:07 4.57302 101.09651 133 ft 0 kts 42°
2026-04-27 12:08 4.57306 101.09655 133 ft 2 kts 43°
2026-04-27 12:08 4.57320 101.09683 133 ft 6 kts 82°
2026-04-27 12:08 4.57295 101.09729 132 ft 9 kts 134°
2026-04-27 12:08 4.57248 101.09775 130 ft 10 kts 136°
2026-04-27 12:09 4.57210 101.09812 128 ft 5 kts 141°
2026-04-27 12:09 4.57178 101.09825 130 ft 5 kts 174°
2026-04-27 12:09 4.57147 101.09811 128 ft 5 kts 223°
2026-04-27 12:09 4.57121 101.09787 128 ft 5 kts 221°
2026-04-27 12:10 4.57096 101.09764 131 ft 5 kts 221°
2026-04-27 12:10 4.57069 101.09745 129 ft 5 kts 198°
2026-04-27 12:10 4.57049 101.09756 129 ft 3 kts 132°
2026-04-27 12:10 4.57044 101.09762 108 ft 0 kts 132°
2026-04-27 12:11 4.57040 101.09764 99 ft 1 kts 148°
2026-04-27 12:11 4.57033 101.09763 91 ft 1 kts 189°
2026-04-27 12:12 4.57030 101.09761 90 ft 0 kts 212°
2026-04-27 12:12 4.57029 101.09761 89 ft 0 kts 212°
2026-04-27 12:12 4.57028 101.09760 88 ft 0 kts 211°